Content
SEND FEEDBACK

Daily
Averages
Monthly
Summary
United States of America

KIRKLAND, ARIZONA


Home > North America > United States > Arizona
Elevation: 3200 feet     Latitude: 34 28N     Longitude: 112 52W

WEATHER
 
SELECT A DAY
Number of Records: 175,254;   Date Range: 1/1/95 - 9/21/14
 
SHARE

PRINT THIS DATA

[ ← Previous Day ]
WEATHER ALMANAC - JANUARY 31, 2013
[ Next Day → ]
[ °C ]   °F
Weather ElementAverageHighLow
Temperature38.9 °F55.9 °F (2:53 pm)27 °F (7:53 am)
Dewpoint25.8 °F30 °F (10:53 am)21.9 °F (3:53 pm)
Humidity63.6 %89 % (7:53 am)27 % (3:53 pm)
Barometer30.21 in30.27 in (7:53 am)30.15 in (5:53 pm)
Wind Speed4.2 mph9.2 mph (7:53 pm)
Weather ElementAverage
Visibility10 mi
Wind DirectionSSE (141.8 °)

Weather ElementTotal
Precipitation---
Heating Degree Days23.6 (Base 65)
Averaged from 22 records on January 31, 2013
WEATHER CONDITIONS BREAKOUT
WIND DIRECTION BREAKOUT
WEATHER BY HOUR - JANUARY 31, 2013
[ °C ]   °F
Local TimeTemperatureDewpointHumidityBarometerVisibilityWind DirectionWind SpeedGust SpeedPrecipitationEventsConditions
1:53 AM30.9 °F26.1 °F82 %30.24 in10.0 miSSE (160°)4.6 mphClear
2:53 AM30.0 °F25.0 °F82 %30.24 in10.0 miSouth (180°)4.6 mphClear
3:53 AM30.0 °F25.0 °F82 %30.22 in10.0 miCalmClear
4:53 AM28.0 °F24.1 °F85 %30.22 in10.0 miCalmClear
5:53 AM28.0 °F25.0 °F88 %30.23 in10.0 miSouth (180°)4.6 mphClear
6:53 AM28.0 °F24.1 °F85 %30.25 in10.0 miSouth (190°)3.5 mphClear
7:53 AM27.0 °F24.1 °F89 %30.27 in10.0 miSSW (200°)4.6 mphClear
8:53 AM34.0 °F28.0 °F79 %30.24 in10.0 miSSW (200°)3.5 mphClear
9:53 AM37.9 °F28.9 °F70 %30.25 in10.0 miNorth (350°)5.8 mphClear
10:53 AM42.1 °F30.0 °F62 %30.25 in10.0 miCalmClear
11:53 AM48.0 °F30.0 °F50 %30.22 in10.0 miCalmClear
12:53 PM52.0 °F26.1 °F37 %30.21 in10.0 miCalmClear
1:53 PM54.0 °F26.1 °F34 %30.18 in10.0 miNE (50°)4.6 mphClear
2:53 PM55.9 °F25.0 °F30 %30.17 in10.0 miNE (40°)8.1 mphClear
3:53 PM55.9 °F21.9 °F27 %30.16 in10.0 miNE (40°)4.6 mphClear
5:53 PM50.0 °F27.0 °F41 %30.15 in10.0 miNNW (340°)3.5 mphClear
6:53 PM43.0 °F26.1 °F51 %30.19 in10.0 miSSW (200°)5.8 mphClear
7:53 PM39.9 °F26.1 °F58 %30.21 in10.0 miSouth (190°)9.2 mphClear
8:53 PM37.9 °F25.0 °F60 %30.21 in10.0 miSouth (190°)8.1 mphClear
9:53 PM35.1 °F25.0 °F67 %30.20 in10.0 miSSW (200°)4.6 mphClear
10:53 PM34.0 °F25.0 °F70 %30.20 in10.0 miSW (220°)3.5 mphClear
11:53 PM33.1 °F24.1 °F70 %30.18 in10.0 miSouth (190°)9.2 mphClear
Hourly data recorded from KPRC, located miles away from Kirkland, Arizona







STORIES FROM OUR PARTNERS